Theta_e
338 339 339 338 337 337 338 338 337 336 336 336 335 335 335 336 341 345 348 345 336 333 335 334 333 333 332 332 331 330 330 330 331 330 331 331 331 332 332 333 334 333 333 333 333 333 332 332 332 331 331 330 330 329 328 326 324 322 320 320 321 322 322 322 320 319 317 316 316 316 316 316 316 317
338 340 340 339 338 338 337 338 338 337 337 337 336 336 335 335 337 339 343 344 337 334 336 334 333 334 333 332 331 331 331 331 331 331 331 332 332 332 332 333 333 333 333 333 332 332 331 331 331 331 331 331 330 329 329 328 328 327 326 325 326 326 325 324 323 322 320 318 316 316 316 316 316 316
337 339 340 340 339 339 338 337 338 337 337 337 336 336 336 336 337 335 338 341 338 335 335 334 333 334 334 333 332 332 332 332 332 332 332 332 333 332 332 332 332 332 331 331 331 330 330 331 331 330 331 331 330 330 330 329 329 329 328 328 327 327 326 326 324 323 321 320 318 316 316 316 316 316
338 338 339 340 340 340 339 338 338 337 337 337 337 337 336 336 337 337 336 337 337 336 335 336 335 335 334 333 332 333 333 332 333 333 332 333 333 333 333 332 332 332 331 330 329 329 329 329 329 329 330 330 330 329 329 329 328 328 327 327 327 327 327 327 326 324 323 321 320 318 317 316 316 316
339 338 338 340 340 340 339 339 339 338 338 338 337 337 337 337 338 338 337 337 336 336 337 337 336 335 334 333 332 332 332 332 332 332 332 332 333 333 333 332 332 332 331 330 329 328 328 328 328 328 328 328 328 328 328 327 327 327 327 326 327 327 327 327 326 326 325 323 322 320 319 317 316 316
341 340 338 339 339 339 339 339 339 338 338 338 338 338 338 338 338 338 339 338 337 337 338 338 336 335 334 334 333 332 332 332 332 333 332 332 332 332 332 332 331 331 331 331 330 329 328 328 328 328 327 327 328 328 328 327 326 326 326 326 327 327 327 327 326 326 326 326 325 324 323 321 320 318
341 341 340 339 339 339 339 339 339 339 338 338 338 338 338 338 338 338 339 339 338 338 338 337 336 335 334 335 334 333 332 332 332 333 332 332 332 331 331 331 330 331 331 331 330 329 329 328 328 328 328 328 328 328 328 328 327 326 327 327 327 327 327 327 327 327 326 326 327 326 326 325 324 323
340 341 341 340 339 339 339 339 338 338 338 338 338 339 339 339 338 339 338 339 339 339 337 337 336 335 335 334 334 333 333 332 332 332 332 331 331 331 330 330 330 330 330 330 330 330 329 329 329 328 328 328 327 327 328 328 328 327 327 327 327 327 327 327 328 327 327 326 326 327 327 327 327 326
339 341 341 340 338 338 339 339 339 338 338 338 339 339 339 338 338 338 338 338 339 338 338 337 336 335 335 334 334 334 334 333 333 332 332 331 331 331 331 331 331 330 330 329 330 330 330 329 329 328 328 328 328 328 328 328 328 328 328 328 328 327 328 327 327 326 326 325 325 325 325 326 326 326
339 340 341 340 338 339 339 339 338 338 338 338 338 338 338 338 338 338 338 338 338 338 337 337 336 336 336 335 335 335 334 333 333 333 333 332 332 332 331 331 331 330 330 329 328 329 328 328 328 328 328 328 328 328 328 328 328 329 328 328 328 328 327 327 327 326 326 326 325 325 325 325 326 326
340 340 340 340 339 339 339 339 338 338 338 338 339 338 338 338 338 338 338 338 338 338 337 337 337 337 336 336 335 335 334 334 334 333 333 333 333 332 332 331 330 330 329 329 328 328 328 328 329 329 328 328 327 328 328 329 329 329 328 328 328 328 328 328 327 327 327 327 327 326 325 326 326 326
340 340 340 340 338 338 338 338 338 338 338 338 339 339 339 339 339 338 338 338 338 338 338 337 337 337 336 336 336 335 335 334 334 334 333 333 333 331 331 331 330 330 330 330 329 329 329 329 330 329 328 326 326 327 328 328 328 328 328 329 328 328 327 326 327 327 327 326 326 325 325 325 326 326
341 340 341 340 338 337 337 338 338 338 339 339 339 339 339 339 339 339 339 339 339 338 338 337 337 337 336 336 336 336 335 335 334 334 333 333 332 332 331 331 331 331 330 330 330 329 329 329 329 328 327 325 325 327 328 328 328 328 327 327 326 325 324 324 325 325 325 325 326 325 325 325 325 325
341 340 341 341 339 337 337 338 339 339 340 340 340 339 339 339 339 339 339 339 339 338 338 337 337 336 336 336 336 336 336 336 335 334 333 332 332 331 331 331 330 330 330 330 330 329 329 329 328 328 327 326 326 328 328 327 326 326 325 325 324 323 323 323 324 324 324 325 325 325 325 325 325 325
340 340 340 340 340 338 338 339 340 340 340 340 340 340 340 340 339 339 339 339 338 338 338 338 337 337 336 336 336 336 336 335 334 334 333 332 331 331 330 330 330 330 330 329 329 329 329 328 328 328 326 326 326 326 325 325 324 324 324 323 323 323 323 323 323 323 323 324 325 325 326 326 325 324
340 340 340 340 340 338 339 339 340 340 340 340 340 340 339 339 338 338 338 338 338 338 338 338 337 336 336 336 336 335 334 334 334 333 332 331 331 330 330 329 329 330 330 330 330 330 328 327 327 327 325 324 324 324 324 324 324 323 323 323 323 323 323 323 323 324 324 324 324 323 323 322 321 320
340 340 339 339 339 338 339 340 341 341 340 339 338 337 336 335 335 336 337 337 338 337 337 337 336 335 335 334 334 334 333 332 332 331 330 330 331 330 329 329 330 330 330 330 330 329 327 325 325 326 324 323 324 324 324 324 323 323 323 323 323 323 323 324 324 323 322 320 319 318 318 317 317 317
340 340 339 339 339 338 339 340 341 340 338 337 335 335 335 334 333 334 335 336 336 336 336 336 335 335 335 334 334 335 334 332 331 330 330 332 331 330 330 330 330 329 329 328 328 327 326 324 324 325 324 324 325 324 324 323 322 321 321 320 320 321 321 322 321 319 318 317 317 317 316 316 315 314
341 340 340 339 339 339 340 340 340 339 337 337 336 335 334 332 331 332 334 335 336 337 338 338 337 336 336 335 335 335 334 334 334 333 332 332 332 330 330 330 329 329 328 326 325 325 325 324 325 325 325 325 325 324 323 321 319 318 318 317 317 318 318 318 317 317 317 316 316 315 313 312 312 311
341 340 340 339 339 340 340 340 339 339 338 338 337 334 329 327 328 330 333 336 338 338 339 338 337 336 336 335 334 334 334 334 334 333 332 331 331 330 328 327 327 327 327 326 324 324 324 325 325 325 325 324 323 322 321 320 319 318 317 317 317 317 317 317 316 316 315 314 313 313 313 313 314 314
341 341 341 340 340 340 340 338 337 337 338 337 335 330 325 326 328 329 331 335 339 339 338 337 336 335 335 334 333 333 332 331 331 331 331 330 330 328 326 324 325 325 326 325 325 324 324 324 324 324 324 323 321 319 319 319 318 317 317 316 316 316 316 315 314 313 313 314 315 316 316 317 317 318
342 342 341 341 341 340 338 335 333 335 336 337 334 329 327 330 332 333 334 338 339 338 337 335 333 333 333 333 332 331 330 329 328 329 329 328 328 327 325 324 324 324 325 325 324 324 324 324 324 323 322 320 318 317 317 317 316 316 316 315 314 314 313 312 313 314 315 316 317 318 318 318 319 319
341 341 341 341 339 338 335 331 330 333 336 336 333 330 330 334 336 337 338 339 339 336 335 333 332 332 332 331 330 329 328 328 327 328 328 328 328 327 325 324 323 323 324 324 323 324 324 324 323 322 319 317 316 316 316 315 315 314 313 313 312 313 313 314 315 316 316 317 317 318 319 319 319 319
340 340 340 338 337 336 333 328 326 329 333 335 332 328 329 333 336 337 338 338 336 333 332 331 331 331 330 329 327 326 326 326 326 327 328 327 327 326 325 324 324 324 324 321 319 322 324 323 321 319 316 316 316 315 313 313 312 312 312 312 313 314 315 315 316 316 317 317 318 318 319 319 319 319
339 338 337 335 334 333 331 329 325 324 329 334 331 326 326 328 333 337 338 336 334 331 330 330 329 328 327 326 325 325 325 325 325 326 326 324 323 323 323 323 323 323 321 318 317 319 320 318 316 314 313 313 313 313 312 311 311 312 313 313 314 314 315 315 316 316 317 318 318 319 319 319 318 318
338 336 335 334 333 331 331 329 323 322 329 334 331 327 328 330 333 336 336 334 332 330 329 328 327 326 325 324 324 324 324 325 325 325 324 322 319 318 318 318 319 319 318 316 315 314 313 312 311 310 311 311 311 311 311 311 311 312 313 313 313 313 314 315 316 317 318 318 319 319 319 319 319 318
338 337 336 335 333 332 330 326 321 324 331 333 330 331 334 335 335 335 334 332 330 329 328 327 326 325 324 323 325 325 324 324 324 323 322 319 317 316 315 315 316 317 316 314 312 310 309 309 309 309 310 310 310 310 310 311 311 312 312 312 312 313 314 316 317 318 319 319 318 319 319 319 319 319
338 338 336 334 332 329 327 325 325 329 333 333 333 335 336 335 334 333 331 330 329 327 326 324 323 323 323 325 325 324 323 322 322 320 318 316 315 314 314 314 315 315 313 311 309 308 308 308 309 309 310 310 310 310 310 311 311 311 311 312 312 313 314 316 318 319 319 318 319 319 319 320 319 319
337 336 333 331 329 328 329 329 330 332 333 334 334 334 333 332 331 330 329 328 326 325 323 322 323 323 323 324 324 322 321 321 319 317 316 315 314 313 313 314 313 311 310 308 308 308 308 309 309 309 309 310 310 310 311 311 311 311 311 313 313 314 315 316 318 319 318 318 319 319 319 319 319 319
335 333 332 331 332 333 334 334 334 334 334 334 333 331 330 329 328 327 327 326 325 324 323 323 323 323 322 322 321 321 321 319 317 315 314 313 313 313 312 311 309 308 308 308 308 308 308 308 308 308 308 308 309 310 310 311 311 311 311 312 314 315 316 317 318 318 318 318 319 319 319 319 319 318
333 332 333 335 335 336 336 336 335 334 333 332 330 328 326 326 325 325 325 324 324 323 323 323 323 323 322 321 321 321 320 317 315 313 312 312 312 311 310 308 307 307 307 308 308 308 308 307 307 307 307 308 308 308 309 310 311 311 311 312 314 316 317 318 318 318 318 318 318 319 319 318 318 318
333 334 335 336 336 335 335 335 334 334 333 331 327 325 325 325 324 323 323 323 323 323 323 323 323 323 323 323 321 320 317 314 313 312 311 311 310 309 307 307 307 307 308 308 308 308 307 307 307 307 308 308 308 308 308 309 310 311 312 314 316 317 318 318 318 318 318 318 318 318 318 318 318 317
333 335 335 334 334 334 334 334 334 333 331 328 325 324 326 325 323 323 323 323 323 323 323 323 323 323 323 321 319 316 314 312 311 310 309 308 308 307 307 307 307 307 308 308 308 307 307 307 307 307 308 308 308 309 308 309 311 313 314 316 317 318 318 318 318 317 318 318 318 318 318 317 317 317
334 334 333 333 333 333 333 333 333 332 329 327 326 326 326 325 324 324 324 324 324 323 324 324 323 321 319 317 314 313 311 310 310 308 307 307 306 307 307 307 307 308 308 308 307 307 308 307 307 307 308 308 310 311 311 311 313 315 316 317 317 318 318 318 318 317 317 317 317 317 317 316 316 315
333 332 333 333 333 332 331 331 331 330 329 328 327 327 326 326 325 325 324 325 325 324 323 321 318 316 314 313 311 310 309 308 308 307 307 307 307 307 307 307 307 307 307 307 307 307 308 307 307 308 308 308 309 311 311 312 314 315 316 317 317 317 318 318 318 317 317 317 316 316 315 314 313 313
332 332 332 332 332 331 331 331 331 330 329 328 328 328 327 326 326 325 325 325 324 321 319 316 313 312 311 311 310 309 308 307 307 307 307 307 307 307 306 306 306 306 306 307 307 307 308 307 307 307 307 307 309 311 312 312 312 313 315 316 316 317 318 318 317 317 316 315 314 313 313 312 311 311
332 332 331 331 331 331 330 328 327 327 326 327 327 327 327 327 327 326 325 323 320 316 314 313 312 312 311 310 309 308 307 307 307 307 306 306 306 305 305 305 305 305 306 307 307 307 307 307 307 307 307 309 311 312 312 311 310 312 314 315 317 317 317 317 317 315 313 312 310 310 310 310 310 311
331 330 329 329 328 327 326 325 325 325 326 327 328 327 327 327 325 323 321 318 315 313 312 312 311 310 309 309 308 307 307 307 307 306 306 305 305 305 305 305 305 305 306 307 307 307 306 307 307 306 307 309 311 312 311 310 311 313 315 316 317 317 317 316 315 312 310 309 309 308 309 309 310 310
330 329 326 325 324 324 323 322 323 323 324 324 324 323 322 320 318 317 316 314 313 312 311 309 308 307 307 307 307 307 307 307 306 305 305 304 304 305 305 305 305 306 307 307 307 306 306 306 307 306 306 308 309 310 310 310 311 314 316 316 316 316 315 314 312 309 308 308 308 308 308 309 309 309
327 326 324 323 322 322 320 320 320 319 319 318 318 317 316 316 315 314 314 312 311 311 309 307 307 307 307 307 307 307 306 305 304 304 304 304 305 305 305 305 305 306 306 307 306 306 306 306 306 306 306 307 307 308 310 312 314 316 316 315 314 314 313 311 309 308 307 307 307 308 308 309 309 308
324 324 323 322 321 321 320 320 320 319 318 318 317 316 315 314 313 313 312 311 311 310 309 308 308 308 307 306 306 305 305 304 304 304 304 304 305 304 304 305 306 306 307 306 306 305 306 306 305 306 306 307 308 310 313 315 315 315 314 313 312 311 309 308 307 307 307 307 307 307 308 308 307 308
321 323 323 321 320 321 320 320 319 318 317 316 316 315 314 313 312 311 311 310 310 310 310 310 310 307 306 305 305 305 304 304 304 304 304 304 304 304 304 305 306 306 307 306 305 305 305 305 306 307 308 308 310 312 314 315 315 314 314 312 310 309 307 306 306 306 305 306 306 307 307 307 307 307
320 322 322 321 320 320 320 319 318 318 317 316 315 315 314 313 311 310 310 309 309 309 309 309 308 306 305 305 305 304 304 304 304 304 304 304 304 305 305 305 306 306 306 305 305 305 305 306 307 309 310 310 312 313 314 314 314 313 312 311 309 307 306 306 305 305 304 305 305 305 305 305 306 307
322 322 321 320 320 320 319 319 318 318 317 316 315 314 313 312 311 310 309 309 309 308 308 307 306 305 305 305 304 304 304 304 304 304 304 304 305 305 305 306 306 306 305 304 305 305 305 306 309 310 310 311 313 313 313 313 313 312 311 309 308 307 306 306 305 305 304 304 304 304 304 305 305 307
324 322 321 320 320 319 319 318 318 317 316 315 313 312 312 312 311 310 309 309 308 308 307 306 305 305 304 304 304 304 304 304 304 304 304 305 305 305 305 306 305 305 304 304 304 304 304 306 310 312 312 312 313 313 312 312 312 310 309 308 307 306 306 306 305 305 304 304 303 303 303 304 305 306
Wind_Speed
18 16 14 14 13 11 11 10 9 8 8 8 9 8 8 7 5 1 2 3 4 5 5 4 4 4 5 6 8 13 15 14 13 14 14 14 13 12 12 12 12 13 14 14 14 15 14 14 15 15 16 16 17 16 15 15 15 16 16 16 16 16 17 18 18 18 17 17 16 16 16 15 15 15
20 18 16 14 13 13 13 12 10 9 9 9 9 9 8 8 7 6 4 3 5 7 8 7 6 4 3 4 6 10 12 13 14 15 16 15 13 12 12 12 13 14 14 15 15 14 13 13 13 14 14 15 15 14 14 14 15 16 17 17 17 17 17 18 19 19 19 18 17 17 17 17 16 16
19 20 18 16 15 14 13 12 12 12 11 11 11 10 10 10 10 10 7 3 5 8 8 7 7 6 6 6 8 11 12 13 14 16 18 17 15 13 13 14 14 14 14 15 14 12 11 12 13 14 15 15 16 16 16 17 17 17 17 17 17 17 17 17 18 19 20 19 19 18 18 18 18 18
19 20 21 19 17 16 15 14 13 13 13 12 12 11 11 11 11 11 10 6 9 13 13 12 13 12 11 11 11 12 13 13 14 15 16 16 16 15 15 15 16 16 15 13 12 11 11 12 13 14 15 16 17 18 18 18 18 18 17 17 17 17 17 17 17 17 18 19 20 20 20 19 19 19
21 21 22 22 19 17 17 17 15 14 14 13 13 12 13 13 13 13 14 11 12 18 19 18 18 15 13 12 12 13 14 15 15 16 16 17 17 16 16 16 16 17 17 15 12 11 12 12 13 15 15 17 18 19 19 19 18 18 18 18 19 19 18 18 17 16 17 17 18 20 21 21 21 21
23 22 22 22 21 18 18 18 17 16 15 15 15 15 15 16 16 15 17 15 13 17 21 20 18 16 14 15 15 14 15 16 17 18 18 19 20 20 20 20 19 18 17 17 16 15 15 15 15 16 17 19 20 21 21 21 20 19 20 20 20 20 20 19 18 17 18 18 18 19 20 21 22 22
23 24 24 22 21 20 19 19 19 17 17 16 16 16 16 17 18 17 18 18 16 17 21 21 19 17 16 15 15 15 16 17 18 19 20 21 21 21 22 22 20 18 17 18 18 18 17 17 17 18 19 20 21 21 22 22 22 22 21 21 21 22 22 21 21 21 21 21 21 21 22 22 22 23
24 25 26 23 22 22 21 21 20 19 18 17 17 18 18 18 19 19 19 21 20 19 19 20 19 17 15 16 16 15 16 17 17 19 20 20 20 19 19 20 20 20 18 18 18 18 18 18 18 19 19 19 20 21 22 21 21 21 22 23 23 24 24 24 24 24 23 23 23 23 24 24 24 24
26 25 26 24 22 22 23 23 22 20 18 18 17 18 19 18 19 19 19 21 21 21 21 21 21 18 16 17 16 16 17 17 18 18 19 19 19 20 20 20 21 21 20 20 19 19 19 20 20 20 19 19 19 20 21 21 22 23 24 24 24 24 24 24 24 24 24 24 25 25 25 25 25 25
28 26 26 24 23 22 23 23 22 20 18 18 18 19 19 18 18 19 19 20 20 21 22 23 23 21 20 20 19 18 17 18 19 19 19 19 19 20 21 22 23 21 20 19 19 20 21 21 20 20 20 20 21 21 22 23 24 24 24 24 23 23 23 23 24 25 26 26 27 27 27 27 26 26
29 28 27 26 26 25 23 22 21 19 19 19 19 20 19 19 19 19 20 20 21 22 23 24 24 23 23 22 21 20 18 18 19 19 19 20 20 20 21 23 23 22 21 20 19 20 21 21 21 21 21 22 23 23 24 24 25 25 25 24 24 24 24 24 25 26 27 28 29 29 29 28 27 26
30 29 28 27 27 26 24 22 21 20 20 20 20 20 19 20 20 20 21 21 22 23 23 24 23 23 22 21 21 20 18 16 18 20 20 21 22 22 22 22 22 22 22 22 20 20 21 21 21 21 23 24 24 24 24 24 25 25 25 24 25 26 27 28 28 27 27 28 28 28 28 27 26 25
30 29 29 28 26 25 23 22 22 22 21 20 21 20 20 21 21 22 21 21 21 21 21 22 22 21 21 21 21 20 20 20 22 23 21 20 22 23 23 24 24 22 22 21 20 19 20 20 20 21 24 24 24 24 24 25 25 26 26 27 28 28 28 28 27 27 26 26 26 25 24 24 24 24
30 30 28 28 27 25 22 21 22 21 20 21 21 21 22 22 23 23 23 22 21 20 19 21 21 19 20 23 23 23 25 25 24 23 21 20 21 21 20 22 22 21 19 18 17 18 18 20 21 22 24 25 25 26 26 26 27 27 27 27 26 26 25 25 25 24 24 23 23 24 24 25 25 26
31 30 28 28 27 24 22 21 21 20 21 21 22 23 24 24 23 23 23 23 21 19 20 21 21 19 21 25 26 25 26 26 24 23 21 19 18 16 13 13 15 18 17 15 16 18 20 22 23 23 25 27 27 27 26 25 24 24 24 24 24 24 23 23 23 23 24 25 25 26 26 26 26 26
31 30 29 28 26 24 22 22 21 21 20 20 21 21 19 18 19 21 23 23 21 20 20 21 20 20 22 24 25 24 23 23 22 20 18 17 17 16 14 14 16 20 19 17 17 20 23 24 23 25 27 27 26 24 22 21 22 23 23 23 23 24 24 24 25 26 26 25 24 23 23 23 23 23
30 29 28 27 26 24 23 22 21 18 16 14 13 12 11 12 16 19 21 22 21 21 21 21 23 24 22 23 25 24 23 22 19 17 19 21 21 20 19 19 22 23 21 19 19 21 23 24 24 25 25 23 22 21 20 22 23 23 23 22 22 22 23 24 24 23 22 20 19 20 21 22 24 25
29 28 27 27 25 24 24 22 19 15 12 10 10 11 13 15 18 20 21 20 19 19 20 23 27 27 24 24 25 25 23 21 20 21 22 22 22 22 21 21 23 23 21 20 18 18 21 23 23 24 23 21 21 21 21 22 21 19 19 19 19 19 19 20 20 20 20 21 23 26 27 29 31 31
29 29 28 27 25 24 23 21 18 14 13 13 14 15 17 18 21 24 23 19 16 17 18 21 24 24 22 22 22 22 20 21 22 22 20 19 20 20 20 21 23 22 21 21 17 15 18 20 20 23 23 22 21 21 20 20 19 18 19 19 20 21 21 21 22 24 26 29 31 33 34 34 34 33
29 29 28 27 25 23 21 19 16 15 14 16 18 19 19 20 23 24 21 17 16 17 17 18 19 19 18 18 19 19 18 18 20 19 18 19 20 18 17 19 22 22 22 22 18 15 17 19 20 22 23 22 21 20 19 20 20 22 23 22 22 22 22 23 26 29 32 33 32 31 30 30 29 28
28 27 26 26 26 25 21 18 17 15 15 17 19 20 22 22 24 24 20 18 17 17 16 17 17 17 17 16 16 17 16 16 17 17 18 20 20 17 13 13 17 21 22 23 20 16 16 17 18 20 21 20 19 19 21 23 24 23 24 24 23 24 26 29 31 32 31 29 27 25 25 25 25 25
25 26 26 26 26 25 21 19 18 18 18 20 21 22 22 22 25 25 22 19 18 17 16 16 16 15 15 14 15 15 15 14 15 17 18 19 18 16 13 13 16 18 21 22 18 13 15 17 18 19 19 18 18 19 20 20 20 20 23 26 28 29 30 31 30 28 26 26 26 26 26 25 26 27
22 25 26 26 25 24 22 21 21 21 21 22 23 21 19 21 25 25 21 19 18 16 15 14 14 14 15 16 16 17 16 14 15 18 19 17 16 16 16 17 14 10 13 17 15 13 16 18 17 17 15 11 12 15 17 18 20 23 27 29 30 29 28 27 27 27 27 28 28 28 28 27 28 29
22 25 27 26 24 23 24 25 25 24 22 23 22 20 19 22 24 22 19 17 16 14 13 13 15 16 17 18 18 18 16 14 14 16 16 15 14 14 16 18 14 10 11 15 16 16 17 16 15 16 14 10 10 15 20 24 26 27 28 29 29 28 28 28 29 29 30 30 30 30 30 29 28 30
25 27 27 25 24 25 26 27 28 26 24 23 22 21 20 22 22 20 18 16 14 12 13 14 15 16 17 17 17 16 15 14 13 13 12 11 10 10 12 15 15 15 16 16 14 14 15 15 16 19 18 16 17 20 23 25 28 28 26 27 29 29 30 32 32 32 32 32 32 33 33 32 30 30
26 27 25 24 25 27 28 27 27 26 24 22 22 23 23 22 21 20 17 14 13 13 14 14 15 16 15 14 13 13 13 13 12 11 9 7 7 9 10 11 13 16 17 15 13 14 16 16 18 19 18 18 19 22 22 22 26 28 27 27 30 31 33 33 33 33 33 33 34 35 36 35 33 32
27 26 25 25 27 27 26 25 25 25 23 22 22 22 21 19 17 16 14 13 13 14 14 14 14 14 12 10 10 10 10 10 8 8 7 7 9 11 12 12 14 15 15 14 15 17 18 18 19 20 21 20 19 18 18 20 25 27 28 30 32 33 34 34 33 33 33 33 35 36 36 36 35 35
28 26 26 26 27 26 24 22 22 22 21 20 18 15 13 12 13 13 13 13 13 13 12 11 11 11 10 9 9 9 8 8 7 7 8 10 12 13 14 14 14 14 15 16 17 17 18 21 22 23 24 23 20 16 17 21 26 28 29 31 32 32 33 33 32 32 33 34 35 36 35 36 36 36
27 27 27 25 24 22 21 19 19 18 17 15 13 11 11 12 13 13 12 12 11 10 10 10 10 9 8 8 8 8 8 9 8 8 10 12 14 14 14 14 15 16 16 17 16 16 18 20 22 22 23 24 23 23 23 25 28 30 29 29 30 33 35 33 32 32 33 34 35 35 35 36 36 36
25 24 23 21 19 18 17 16 14 13 12 12 11 11 12 12 11 10 10 9 9 8 8 8 8 8 7 7 8 8 9 9 9 9 12 14 15 14 13 15 17 17 16 15 16 17 17 18 19 20 22 24 25 27 28 27 27 30 30 30 30 31 32 33 32 33 34 35 36 36 37 37 37 37
22 20 17 14 14 13 12 12 11 11 12 11 12 12 11 9 7 6 7 7 7 7 7 7 8 9 9 10 10 10 10 9 9 11 12 13 14 13 14 16 18 19 18 17 16 16 16 18 19 21 23 25 25 27 29 27 27 29 31 32 31 29 31 34 34 35 36 35 36 37 37 38 38 39
18 15 13 11 11 10 11 12 13 13 13 13 12 11 8 5 5 6 6 7 8 7 7 9 10 12 13 14 12 10 9 9 10 11 11 12 12 13 14 16 19 21 22 21 18 17 18 19 21 23 25 25 26 28 28 27 27 29 32 33 32 31 33 34 34 36 37 34 33 36 38 39 39 40
17 15 13 12 11 11 13 15 15 15 15 13 12 10 6 6 8 9 8 9 9 8 9 11 13 15 14 12 8 7 8 9 9 9 9 10 12 13 15 17 20 22 23 23 22 22 21 22 22 24 26 26 26 27 26 26 28 31 32 33 33 32 34 35 35 36 36 33 32 35 38 40 40 40
17 15 14 13 13 14 16 17 18 17 16 15 13 10 8 9 11 11 11 11 10 11 13 14 13 11 8 6 5 6 7 7 7 8 9 11 13 15 17 19 19 20 20 21 23 25 25 25 26 26 28 28 27 27 25 25 27 31 32 32 32 32 34 36 35 34 34 32 32 34 37 40 41 40
17 16 15 15 15 16 17 18 18 17 16 15 14 13 12 12 13 13 12 12 12 12 11 9 6 5 4 4 4 5 5 6 8 9 10 11 13 15 16 17 17 18 19 21 24 25 26 27 28 27 26 26 25 25 26 26 27 29 31 31 30 31 34 35 34 33 33 33 33 33 35 38 39 39
17 16 15 14 15 16 16 17 16 15 15 16 16 16 16 15 14 14 14 13 11 9 7 6 5 5 5 4 4 5 6 7 8 10 11 12 13 13 14 15 17 19 21 22 24 25 25 26 27 23 17 15 12 12 19 28 29 27 29 32 32 32 34 34 34 34 33 34 34 33 32 33 37 40
16 16 14 13 14 14 14 13 13 12 13 15 15 16 17 16 15 14 12 10 8 8 7 6 5 5 5 5 5 6 6 7 9 11 12 12 12 12 14 17 19 21 23 23 23 23 23 24 26 22 14 8 6 7 15 28 34 30 28 30 34 35 35 33 32 33 34 35 35 34 33 34 38 41
16 15 14 12 11 9 8 7 7 7 8 10 12 13 13 12 11 9 8 9 9 7 5 4 4 6 6 6 5 5 5 7 9 10 10 11 13 15 17 19 20 22 23 22 22 23 23 24 26 24 16 8 5 7 11 20 30 34 31 29 32 36 35 31 29 32 35 35 34 34 35 36 39 41
15 15 12 10 8 6 6 7 8 8 8 8 8 9 10 10 10 10 10 9 7 5 3 3 4 4 3 2 2 4 5 6 6 8 10 12 14 16 18 19 21 21 22 22 22 24 25 25 26 27 23 16 14 17 20 22 28 34 32 28 28 31 30 28 30 34 35 34 34 35 36 35 36 38
15 13 10 10 11 12 12 13 12 12 12 11 10 10 11 10 10 10 9 7 5 4 3 3 3 3 2 1 1 3 3 4 6 8 11 13 14 16 17 19 20 20 20 21 22 24 26 28 28 29 29 27 25 28 28 26 26 29 31 29 27 25 25 29 33 34 34 34 35 34 32 30 31 32
14 12 13 14 14 14 13 12 11 10 10 10 9 9 8 9 9 9 8 6 4 4 4 3 3 3 2 1 1 2 3 5 7 9 11 13 14 15 17 18 20 20 18 19 22 25 27 29 30 30 29 28 27 25 20 16 16 23 30 33 30 27 27 30 31 32 33 34 34 31 27 27 27 27
13 14 16 16 15 14 12 11 11 10 9 10 9 7 7 8 8 8 7 5 4 4 3 3 4 3 2 1 1 2 4 6 8 10 11 12 14 16 17 18 20 20 19 20 23 26 28 30 30 28 27 27 24 17 11 10 14 22 29 33 33 33 33 31 30 31 32 31 28 25 24 23 19 15
13 15 18 17 15 14 12 11 10 9 8 8 7 5 5 7 7 7 6 3 3 3 2 3 4 5 3 2 1 3 4 6 8 10 11 12 14 16 18 19 20 21 21 22 25 28 30 30 29 26 25 24 21 16 13 16 20 23 27 31 34 37 37 36 34 34 33 29 26 24 24 22 15 12
13 16 18 17 15 13 11 9 9 8 7 6 4 4 6 7 7 6 5 3 2 2 2 2 4 5 4 3 2 3 5 6 8 9 11 12 14 16 18 19 20 21 22 23 26 29 30 29 26 24 23 22 20 18 17 19 21 23 26 29 32 34 37 37 37 38 37 34 31 30 28 24 19 18
14 17 18 16 13 11 10 8 9 8 7 5 4 5 6 7 7 6 5 4 4 4 3 4 6 7 5 3 3 4 5 6 7 9 11 12 14 16 18 19 19 21 23 24 25 27 29 27 24 22 22 20 18 18 18 19 20 22 25 28 30 32 34 34 34 35 35 35 35 35 31 26 22 21
Wind_Direction
210 211 214 218 220 213 207 211 218 224 226 220 216 216 210 195 182 188 273 260 235 214 219 237 254 264 274 277 254 233 231 242 256 265 270 272 274 278 280 278 276 277 280 282 284 285 283 279 276 276 279 282 283 283 282 284 284 282 282 285 289 294 296 296 295 295 296 299 303 305 306 305 302 297
213 214 216 220 222 218 218 221 224 227 226 224 224 230 235 228 211 196 202 257 248 230 238 254 257 254 257 263 248 238 242 254 260 262 265 265 269 279 283 280 279 281 283 284 287 287 282 278 276 276 276 277 278 276 274 277 280 283 284 285 288 291 292 292 290 289 288 288 292 296 299 302 303 304
217 216 218 220 222 225 226 229 232 234 234 237 240 242 243 242 237 223 210 231 255 242 248 260 253 251 263 266 261 256 257 263 264 262 261 258 260 272 283 286 286 286 287 287 286 278 269 270 275 276 275 273 271 271 272 275 277 281 283 285 286 288 290 291 290 289 285 281 282 284 289 295 298 301
222 219 220 221 223 226 230 232 233 236 239 243 246 247 246 243 244 239 225 227 257 258 261 270 273 277 281 274 268 267 269 274 277 276 272 264 259 261 272 283 287 286 285 285 283 274 268 271 276 276 274 272 272 272 274 276 278 280 282 283 284 287 289 291 292 292 288 284 280 278 279 284 289 294
224 222 221 223 225 226 229 230 229 231 234 238 240 242 244 243 241 240 233 232 255 267 270 274 280 285 284 277 274 277 278 280 282 285 286 282 276 273 276 281 285 284 280 278 278 276 274 274 276 278 278 279 281 281 280 280 280 282 283 283 284 285 287 290 292 293 292 290 286 282 279 277 279 283
224 223 223 224 226 227 230 230 228 230 231 234 238 239 241 243 241 240 239 236 243 263 271 275 280 284 282 278 280 285 288 289 289 287 286 285 285 286 287 288 286 281 275 274 275 274 275 276 278 282 284 284 285 285 285 285 284 285 286 286 285 284 284 286 289 290 290 290 290 290 287 283 280 279
223 223 224 226 228 230 233 231 229 233 235 238 242 243 244 247 247 246 245 242 241 252 266 272 275 278 276 271 274 282 286 287 286 283 282 283 283 284 288 291 291 284 277 275 274 273 272 273 275 282 286 285 283 282 283 283 283 283 284 285 285 285 284 284 286 289 288 287 287 288 289 288 286 284
223 224 225 228 229 230 233 233 232 233 236 238 241 243 245 248 252 254 251 250 249 249 258 268 272 273 270 264 265 271 275 275 275 277 279 280 280 281 284 287 290 290 287 284 280 274 271 272 276 283 286 286 284 283 281 279 278 278 280 283 284 283 283 284 286 287 286 285 285 286 287 287 286 285
224 225 226 227 227 231 236 236 232 231 234 238 240 242 246 249 255 260 258 257 256 253 256 265 271 272 268 264 265 266 266 266 267 271 273 273 275 278 279 279 280 284 289 290 288 285 282 282 284 287 288 289 289 287 285 282 281 282 284 285 284 281 280 281 282 282 281 282 285 287 288 287 286 284
225 226 227 228 228 233 236 233 230 232 237 241 243 244 247 251 256 260 260 260 258 256 258 263 268 270 269 269 270 268 265 264 268 271 271 268 267 270 274 276 277 280 283 285 286 287 287 287 288 290 291 292 292 290 288 286 285 285 284 282 281 279 278 277 278 278 279 280 282 285 287 286 286 285
228 229 230 231 232 234 234 232 233 238 243 246 248 249 250 253 255 257 259 257 255 256 259 262 264 268 271 271 271 273 271 266 266 268 268 267 269 270 273 275 277 278 279 279 278 279 280 282 283 285 290 294 294 292 290 289 288 286 285 282 279 277 277 276 277 277 278 279 281 284 286 285 284 284
232 233 234 235 235 233 233 237 241 245 249 250 250 251 254 256 256 257 256 254 252 253 256 260 264 269 270 269 271 274 270 260 260 265 263 265 273 280 280 278 277 277 276 276 275 274 275 275 275 281 288 293 293 292 291 290 290 288 285 283 281 282 283 283 283 282 281 280 281 283 285 285 284 284
232 234 236 236 235 232 232 238 244 248 251 251 253 257 259 258 257 256 255 253 251 250 253 259 265 269 269 270 270 269 266 264 267 272 268 265 274 282 283 282 282 279 277 275 273 273 276 276 279 285 290 293 293 292 291 291 290 289 287 286 287 289 290 289 288 287 285 284 283 284 284 284 284 285
231 232 234 235 234 233 233 237 243 249 252 255 261 266 265 262 259 257 255 253 251 250 253 259 263 265 267 271 272 271 274 276 276 278 275 272 278 283 281 282 283 280 278 277 273 275 282 285 288 291 292 293 293 292 293 294 293 292 291 290 291 292 292 292 291 289 288 287 287 287 287 288 289 290
228 230 231 232 232 233 235 238 243 249 254 259 264 267 267 266 264 261 258 256 255 253 254 258 260 258 263 273 276 274 277 281 280 279 278 277 281 281 275 277 280 278 279 281 278 282 289 291 291 292 292 293 294 296 298 298 297 296 295 296 296 295 294 293 291 291 292 292 291 291 291 291 292 292
229 229 228 229 230 232 236 240 243 247 254 259 263 265 266 266 267 266 262 260 259 258 257 259 261 262 266 273 278 277 279 284 281 277 276 275 277 278 273 271 275 280 285 287 285 287 292 294 292 290 291 295 298 301 302 301 300 300 300 300 300 299 297 294 293 294 295 295 294 292 292 290 289 289
230 229 228 228 230 233 237 240 243 248 254 254 248 244 246 257 267 267 261 257 257 261 264 264 268 273 274 275 281 286 288 283 274 273 280 283 282 280 275 273 278 285 289 291 288 287 291 295 292 288 293 300 303 303 302 301 302 302 303 303 301 299 296 295 295 295 294 294 293 292 291 289 288 287
230 230 228 226 228 232 235 238 242 245 242 230 222 232 250 264 268 265 261 257 256 263 269 270 273 279 282 283 289 294 292 282 277 281 286 288 287 284 281 281 284 287 288 289 286 281 288 297 294 290 297 304 302 301 301 301 302 303 304 304 302 301 299 296 295 294 292 292 292 291 290 289 287 286
232 231 229 228 228 230 231 233 236 236 234 235 243 256 265 264 262 262 264 265 269 277 282 280 280 283 287 289 291 294 293 287 287 290 290 291 290 286 283 283 284 286 290 291 284 273 284 297 292 290 299 303 299 300 300 298 300 304 306 305 302 301 300 296 292 291 291 292 291 290 289 286 284 282
234 232 231 230 228 227 227 228 231 235 242 251 259 265 264 258 260 266 271 277 287 294 291 287 288 289 290 290 290 294 295 290 292 295 292 292 289 281 280 282 284 289 295 296 287 274 283 295 291 289 298 299 295 297 296 295 298 303 304 304 302 298 294 291 290 291 292 293 292 290 287 283 281 278
231 229 229 228 225 225 225 228 235 240 249 258 263 262 257 256 263 271 279 287 292 291 289 290 292 291 289 289 291 296 296 295 297 292 285 289 287 278 275 280 283 289 293 296 295 286 288 300 298 293 298 298 295 297 298 298 301 302 301 300 297 294 291 290 291 292 293 293 292 290 287 284 282 280
230 227 225 224 222 223 225 232 239 244 252 261 263 258 257 264 272 275 282 288 288 286 288 291 291 289 289 291 293 296 296 298 299 290 287 292 287 273 268 273 280 287 290 297 305 297 294 306 305 300 300 297 293 296 298 298 298 295 295 295 293 292 292 291 292 293 293 294 294 293 290 287 285 285
229 225 223 221 219 222 227 234 240 245 254 262 262 260 263 271 274 276 281 283 283 286 290 290 289 288 289 292 295 296 295 296 297 295 297 298 286 273 272 277 281 286 292 306 317 304 295 303 304 302 303 296 292 296 295 294 294 294 296 297 296 295 295 295 295 295 295 295 296 294 293 290 289 288
224 221 220 218 218 225 233 237 239 244 255 263 263 262 265 268 271 277 280 277 278 285 287 287 289 289 291 294 294 295 295 295 297 299 300 298 290 279 274 277 278 269 282 310 320 306 297 301 303 303 303 292 287 294 296 297 298 300 301 301 300 302 302 300 299 298 297 297 297 295 294 292 290 287
218 216 215 214 220 230 238 240 240 243 254 264 264 265 268 270 272 275 273 271 277 283 283 284 287 289 293 295 293 293 295 297 300 302 299 298 299 289 279 281 281 277 288 311 320 307 301 304 305 306 302 292 286 291 295 298 301 304 307 306 304 305 305 302 299 298 297 297 296 295 294 292 289 286
215 215 215 220 229 237 240 242 243 246 253 261 265 271 275 273 268 265 264 270 278 282 284 286 289 292 294 293 290 290 292 295 297 296 291 292 306 306 299 295 289 287 296 311 317 310 305 303 303 303 297 291 291 294 296 297 301 307 309 307 305 305 303 300 296 295 295 294 294 294 293 291 288 285
214 218 223 231 238 241 242 246 248 248 253 261 269 274 273 266 258 256 262 273 280 283 285 286 288 289 288 286 288 291 297 301 299 292 290 296 307 310 309 305 297 294 301 311 315 314 309 304 304 303 296 291 292 294 294 294 300 305 304 303 304 304 302 299 294 292 292 291 291 293 292 290 287 285
218 224 231 237 242 245 248 251 249 249 255 264 267 267 262 253 251 256 266 275 278 278 280 280 281 281 278 279 286 294 306 308 297 289 294 301 309 311 309 306 302 301 307 312 313 313 309 307 309 311 306 300 293 290 292 295 298 300 301 302 303 302 301 299 293 289 290 290 290 289 287 284 284 283
223 227 232 237 241 245 247 246 246 251 256 257 254 255 254 252 254 262 269 272 272 272 275 274 272 271 276 287 292 295 299 296 289 292 300 305 310 311 307 304 304 306 311 313 313 313 313 312 314 316 313 307 298 291 291 293 295 298 299 298 297 299 299 297 292 290 291 291 290 287 283 281 280 279
220 223 229 236 238 238 238 240 246 250 247 245 250 256 256 255 259 266 268 265 265 268 268 264 265 274 288 295 291 287 287 287 292 303 309 309 310 310 309 308 309 312 315 316 316 317 319 320 320 317 311 307 302 296 294 291 290 294 297 295 293 295 298 297 295 294 293 292 290 287 284 282 280 277
215 220 226 228 226 224 227 233 237 236 238 248 258 257 253 256 260 257 253 251 250 254 259 265 275 284 290 289 285 282 282 287 300 309 310 309 309 312 314 312 313 316 319 320 323 326 327 325 322 317 311 306 302 301 301 295 289 291 295 295 292 291 294 296 296 295 295 293 290 287 284 281 278 276
213 217 213 206 205 212 223 230 233 238 246 253 252 245 243 244 227 217 223 229 232 241 255 266 274 279 282 284 284 280 282 296 308 312 309 308 311 316 317 313 313 317 320 324 330 333 332 328 324 322 319 312 306 306 305 299 293 292 293 294 294 292 292 295 294 294 296 293 287 284 283 280 279 277
208 204 201 202 208 220 231 236 240 246 247 244 239 236 236 226 211 208 221 232 238 249 260 267 273 277 279 282 282 281 290 302 308 310 313 316 318 319 317 315 316 319 320 324 331 334 333 332 329 327 325 322 318 315 306 295 294 296 294 293 293 292 292 294 294 294 296 292 287 286 285 283 281 280
205 204 207 215 225 234 238 239 242 244 241 238 238 235 228 222 217 219 232 242 249 261 269 271 272 270 268 270 272 276 288 297 303 312 320 321 319 320 320 319 322 325 324 324 329 332 332 332 332 331 331 331 329 326 316 300 293 296 296 292 290 289 292 295 295 295 296 293 288 287 286 285 284 283
209 212 217 225 233 239 239 239 243 244 241 244 246 237 226 227 228 229 237 248 257 266 267 260 248 239 239 244 253 269 290 305 313 318 320 319 319 324 326 324 324 327 326 323 326 330 332 332 331 329 329 330 328 324 322 315 303 297 297 295 293 293 295 297 298 298 297 296 292 289 288 288 288 288
214 214 218 226 232 234 236 239 244 247 251 257 256 240 226 226 231 236 245 254 257 250 231 207 202 212 223 236 261 291 306 313 319 321 322 325 329 333 334 331 327 327 326 325 328 331 332 330 329 325 320 323 322 312 314 318 314 305 300 298 299 299 300 301 302 301 300 300 297 292 289 289 289 290
210 212 216 224 228 231 237 244 250 254 257 256 249 235 227 232 240 245 246 239 219 199 191 193 202 213 231 259 285 299 307 316 323 325 329 337 342 339 334 331 330 329 329 329 331 334 332 329 327 321 310 306 312 295 301 311 314 312 306 300 300 303 304 304 304 303 303 302 299 293 290 287 287 289
201 202 208 216 223 230 237 239 239 239 235 232 230 226 225 229 230 219 203 191 185 186 195 217 237 251 263 274 287 301 314 323 329 336 343 347 343 338 333 331 331 331 330 330 333 335 333 327 323 318 308 296 292 295 300 306 308 312 314 308 301 302 306 306 306 306 305 303 299 295 291 287 286 290
198 199 204 207 204 191 162 143 141 145 151 161 174 180 181 183 181 175 174 178 183 190 208 227 241 249 248 251 288 317 327 334 343 348 347 340 336 335 335 333 332 332 330 328 332 334 331 327 323 318 312 301 294 297 299 297 299 306 314 315 308 304 307 310 310 308 306 304 302 299 297 294 293 296
196 194 189 179 166 152 140 130 127 130 132 134 138 145 154 161 167 170 173 174 172 171 174 175 173 172 172 186 335 335 335 343 347 340 334 332 333 336 338 336 334 333 329 325 327 329 327 325 325 322 317 312 310 311 308 303 301 307 315 321 321 317 315 315 313 307 305 307 308 306 305 305 304 303
193 181 170 166 161 153 146 142 143 145 146 147 150 150 151 153 157 161 163 159 157 165 171 178 186 185 184 233 331 339 333 335 337 333 332 335 337 337 339 338 336 334 328 321 321 324 324 325 329 330 328 326 326 325 320 311 310 314 317 323 327 327 324 322 318 312 311 314 314 311 310 312 308 307
191 178 170 167 163 159 157 156 156 154 152 155 158 156 153 154 156 157 156 155 166 185 204 225 223 211 198 220 289 325 332 334 336 337 338 341 340 339 340 339 337 334 326 319 320 323 326 331 336 338 336 336 335 330 319 311 313 314 317 323 329 331 333 333 331 329 326 324 321 317 316 316 309 308
182 174 170 167 164 164 164 165 166 169 170 170 172 175 175 172 168 163 160 163 184 207 249 256 222 208 202 208 252 316 329 332 337 341 343 344 342 340 339 338 338 334 326 322 325 329 332 338 342 342 339 339 338 332 320 317 318 319 321 326 331 335 338 340 341 341 340 338 336 333 329 327 322 322
180 172 170 169 168 170 171 173 177 182 184 182 186 189 187 184 183 180 177 178 183 198 260 250 208 194 188 194 245 300 316 325 335 340 343 342 340 338 338 337 336 333 328 327 329 332 336 342 345 344 341 341 340 337 329 324 324 325 327 331 334 337 340 342 343 344 344 346 349 349 347 348 348 342
186 176 173 175 175 174 175 179 184 186 185 184 186 187 189 196 203 203 198 196 198 211 224 205 186 181 187 212 257 288 305 316 324 331 337 337 334 333 337 338 335 331 331 331 331 332 336 341 344 344 342 344 349 349 341 333 331 332 333 337 339 340 342 343 343 342 341 343 349 354 356 360 5 2